Find Kosmos-2070

NORAD ID: 20555 Int'l Des: 1990-029 Owner: UNKS Country: SU operational
LEOCIRCULAR

リアルタイム位置

3D地球を読み込み中...

Kosmos-2070について

説明を読み込み中...

次回通過

Passes for default location (London). Set your location on the main map for personalized predictions.

高度履歴

Loading altitude history...

軌道要素

1 20555U 90029G 26104.92903766 -.00000011 00000-0 35732-4 0 9999
2 20555 73.9798 265.5516 0013074 62.5079 106.4620 12.52804419647480
Epoch: Apr 14, 2026 • Age: 8 hours

現在のステータス

高度 1476.0 km
速度 7.12 km/s
衛星直下点 -37.50°S, 160.92°E
打ち上げ日 Apr 6, 1990
運用期間 36 years
タイプ other

技術仕様

分類 Payload
質量 60.00 kg
乾燥質量 60.00 kg
総質量 60.00 kg
長さ 0.80 m
直径 0.80 m
スパン 0.80 m
形状 Poly
製造者 NPOPM
バスタイプ Strela-1 11F625
フェーズステータス In Orbit
所有者/国 UNKS/SU

Most Searched